Date String (YYYY-MM-DD hh:mm:ss) UTC,Instrument flags,Ambient pressure (hPa),Sample flow (lpm),Bypass flow (lpm),Sample temperature (°C),Ambient temperature (°C),ASC tube jacket temperature (°C),LED temperature (°C),Box temperature (°C),Sample RH (%),Span deviation,Mass concentration (μg/m³),Mass concentration (μg/m³),Mass concentration (μg/m³)
DateTimeUTC,F1_M11,P_M11,Q1_M11,Q2_M11,T1_M11,T2_M11,T3_M11,T4_M11,T5_M11,U1_M11,ZSPAN_M11,X2_M11,X0_M11,X1_M11
2021-12-27 00:00:00,,0811.2,5.00,0.00,21.7,21.0,00.0,30.7,23.3,11.5,0000.0,0000.29,0004.41,0000.11
2021-12-27 00:01:00,,0811.3,4.99,0.00,21.7,21.0,00.0,30.7,23.3,11.2,0000.0,0000.31,0003.73,0000.10
2021-12-27 00:02:00,,0811.5,5.00,0.00,21.7,21.0,00.0,30.7,23.3,11.1,0000.0,0000.32,0003.12,0000.10
2021-12-27 00:03:00,,0811.5,4.99,0.00,21.7,21.0,00.0,30.7,23.3,11.1,0000.0,0000.32,0002.52,0000.09
2021-12-27 00:04:00,,0811.6,5.01,0.00,21.6,20.9,00.0,30.7,23.2,11.1,0000.0,0000.33,0002.46,0000.10
2021-12-27 00:05:00,,0811.6,4.99,0.00,21.6,20.9,00.0,30.7,23.3,11.0,0000.0,0000.31,0003.19,0000.09
2021-12-27 00:06:00,,0811.6,4.99,0.00,21.6,21.0,00.0,30.7,23.3,11.1,0000.0,0000.30,0003.07,0000.09
2021-12-27 00:07:00,,0811.6,5.02,0.00,21.7,21.0,00.0,30.7,23.3,11.1,0000.0,0000.28,0002.39,0000.09
2021-12-27 00:08:00,,0811.7,4.99,0.00,21.7,21.0,00.0,30.7,23.3,11.2,0000.0,0000.31,0002.52,0000.09
2021-12-27 00:09:00,,0811.7,5.00,0.00,21.7,21.0,00.0,30.7,23.3,11.2,0000.0,0000.33,0002.62,0000.09
2021-12-27 00:10:00,,0811.7,5.00,0.00,21.7,21.1,00.0,30.7,23.4,11.3,0000.0,0000.33,0002.45,0000.09
2021-12-27 00:11:00,,0811.9,5.00,0.00,21.8,21.7,00.0,30.7,23.6,11.3,0000.0,0000.36,0002.44,0000.09
2021-12-27 00:12:00,,0811.8,4.99,0.00,21.9,22.6,00.0,30.8,23.9,11.3,0000.0,0000.34,0002.40,0000.10
2021-12-27 00:13:00,,0811.9,5.00,0.00,22.0,22.8,00.0,30.8,24.1,11.2,0000.0,0000.30,0002.25,0000.10
2021-12-27 00:14:00,,0812.0,5.00,0.00,22.1,22.6,00.0,30.8,24.1,11.2,0000.0,0000.30,0002.21,0000.10
2021-12-27 00:15:00,,0812.0,5.00,0.00,22.1,22.4,00.0,30.9,24.0,11.2,0000.0,0000.28,0001.27,0000.09
2021-12-27 00:16:00,,0812.0,5.01,0.00,22.1,22.2,00.0,30.9,24.0,11.2,0000.0,0000.27,0000.66,0000.09
2021-12-27 00:17:00,,0812.0,4.99,0.00,22.1,22.1,00.0,30.9,23.9,11.2,0000.0,0000.29,0000.88,0000.10
2021-12-27 00:18:00,,0812.0,5.00,0.00,22.1,22.0,00.0,30.9,23.9,11.3,0000.0,0000.31,0000.96,0000.10
2021-12-27 00:19:00,,0812.0,5.00,0.00,22.1,21.9,00.0,31.0,23.9,11.3,0000.0,0000.29,0000.87,0000.10
2021-12-27 00:20:00,,0812.0,5.01,0.00,22.1,21.8,00.0,31.0,23.9,11.3,0000.0,0000.30,0000.84,0000.11
2021-12-27 00:21:00,,0812.1,4.99,0.00,22.1,21.8,00.0,31.0,23.8,11.3,0000.0,0000.35,0000.92,0000.16
2021-12-27 00:22:00,,0812.1,5.01,0.00,22.1,21.7,00.0,31.0,23.8,11.4,0000.0,0000.37,0000.99,0000.20
2021-12-27 00:23:00,,0812.1,4.99,0.00,22.1,21.6,00.0,31.0,23.8,11.3,0000.0,0000.45,0001.18,0000.24
2021-12-27 00:24:00,,0812.2,5.01,0.00,22.1,21.6,00.0,31.0,23.8,11.3,0000.0,0000.50,0001.30,0000.27
2021-12-27 00:25:00,,0812.1,5.00,0.00,22.1,21.6,00.0,31.0,23.8,11.3,0000.0,0000.51,0001.29,0000.29
2021-12-27 00:26:00,,0812.2,4.99,0.00,22.1,21.6,00.0,31.0,23.8,11.1,0000.0,0000.53,0001.31,0000.31
2021-12-27 00:27:00,,0812.2,5.01,0.00,22.1,21.5,00.0,31.0,23.8,11.2,0000.0,0000.59,0001.65,0000.31
2021-12-27 00:28:00,,0812.4,4.99,0.00,22.1,21.5,00.0,31.0,23.8,11.3,0000.0,0000.64,0001.73,0000.32
2021-12-27 00:29:00,,0812.4,5.01,0.00,22.1,21.5,00.0,31.0,23.8,11.3,0000.0,0000.64,0002.00,0000.33
2021-12-27 00:30:00,,0812.5,5.01,0.00,22.1,21.5,00.0,31.0,23.8,11.0,0000.0,0000.64,0002.10,0000.33
2021-12-27 00:31:00,,0812.5,5.01,0.00,22.1,21.5,00.0,31.0,23.7,10.9,0000.0,0000.65,0002.75,0000.33
2021-12-27 00:32:00,,0812.5,5.00,0.00,22.1,21.4,00.0,31.0,23.7,10.8,0000.0,0000.61,0002.71,0000.29
2021-12-27 00:33:00,,0812.5,4.98,0.00,22.1,21.4,00.0,31.0,23.7,10.8,0000.0,0000.61,0002.78,0000.25
2021-12-27 00:34:00,,0812.5,5.02,0.00,22.1,21.4,00.0,31.0,23.7,10.9,0000.0,0000.56,0002.66,0000.20
2021-12-27 00:35:00,,0812.6,4.99,0.00,22.0,21.3,00.0,31.0,23.7,10.9,0000.0,0000.55,0002.66,0000.18
2021-12-27 00:36:00,,0812.7,5.01,0.00,22.0,21.3,00.0,31.0,23.7,10.9,0000.0,0000.56,0002.72,0000.17
2021-12-27 00:37:00,,0812.8,4.99,0.00,22.0,21.3,00.0,31.0,23.7,11.0,0000.0,0000.58,0002.82,0000.15
2021-12-27 00:38:00,,0812.9,5.00,0.00,22.0,21.3,00.0,31.0,23.7,11.0,0000.0,0000.56,0002.63,0000.15
2021-12-27 00:39:00,,0813.0,4.99,0.00,22.0,21.3,00.0,31.0,23.6,11.1,0000.0,0000.54,0002.81,0000.15
2021-12-27 00:40:00,,0813.0,5.00,0.00,21.9,21.2,00.0,31.0,23.5,11.7,0000.0,0000.57,0003.00,0000.15
2021-12-27 00:41:00,,0813.1,5.01,0.00,21.9,21.1,00.0,31.0,23.5,11.9,0000.0,0000.64,0003.09,0000.16
2021-12-27 00:42:00,,0813.0,5.00,0.00,21.8,21.0,00.0,31.0,23.4,12.0,0000.0,0000.64,0002.53,0000.16
2021-12-27 00:43:00,,0813.2,5.00,0.00,21.8,21.0,00.0,31.0,23.4,12.1,0000.0,0000.67,0004.45,0000.18
2021-12-27 00:44:00,,0813.0,5.00,0.00,21.8,21.0,00.0,30.9,23.4,12.2,0000.0,0000.66,0006.35,0000.18
2021-12-27 00:45:00,,0813.1,4.99,0.00,21.8,21.0,00.0,30.9,23.4,12.3,0000.0,0000.61,0006.78,0000.19
2021-12-27 00:46:00,,0813.0,5.00,0.00,21.8,21.0,00.0,30.9,23.4,12.4,0000.0,0000.59,0007.34,0000.19
2021-12-27 00:47:00,,0813.1,5.01,0.00,21.7,21.0,00.0,30.9,23.4,12.5,0000.0,0000.61,0007.38,0000.19
2021-12-27 00:48:00,,0813.1,5.00,0.00,21.7,21.0,00.0,30.9,23.3,12.7,0000.0,0000.59,0007.35,0000.20
2021-12-27 00:49:00,,0813.1,5.01,0.00,21.7,20.9,00.0,30.8,23.3,12.8,0000.0,0000.57,0007.32,0000.21
2021-12-27 00:50:00,,0813.1,4.99,0.00,21.6,20.8,00.0,30.8,23.2,12.9,0000.0,0000.58,0006.83,0000.22
2021-12-27 00:51:00,,0813.1,5.01,0.00,21.6,20.8,00.0,30.8,23.2,13.1,0000.0,0000.57,0006.99,0000.22
2021-12-27 00:52:00,,0813.1,4.99,0.00,21.6,20.8,00.0,30.8,23.2,13.1,0000.0,0000.50,0007.31,0000.22
2021-12-27 00:53:00,,0813.2,5.00,0.00,21.6,21.4,00.0,30.8,23.4,13.1,0000.0,0000.47,0007.44,0000.22
2021-12-27 00:54:00,,0813.3,5.00,0.00,21.8,22.2,00.0,30.8,23.7,12.9,0000.0,0000.44,0005.91,0000.21
2021-12-27 00:55:00,,0813.3,5.00,0.00,21.9,22.8,00.0,30.9,24.0,12.8,0000.0,0000.44,0004.32,0000.22
2021-12-27 00:56:00,,0813.3,5.00,0.00,22.0,22.6,00.0,30.9,23.9,12.8,0000.0,0000.47,0003.75,0000.22
2021-12-27 00:57:00,,0813.4,4.99,0.00,22.0,22.3,00.0,30.9,23.7,12.8,0000.0,0000.48,0004.04,0000.22
2021-12-27 00:58:00,,0813.5,5.02,0.00,21.9,22.0,00.0,30.9,23.6,12.8,0000.0,0000.48,0004.76,0000.22
2021-12-27 00:59:00,,0813.4,4.99,0.00,21.8,21.8,00.0,30.9,23.4,12.7,0000.0,0000.48,0005.06,0000.22
